Regional Weather Roundup
Issued by NWS

Home | Current Version | Previous Version | Graphics & Text | Print | Product List | Glossary On
Versions: 1 2 3 4 5 6 7 8 9 10 11 12 13 14 15 16 17 18 19 20 21 22 23 24 25 26 27 28 29 30 31 32 33 34 35 36 37 38 39 40 41 42 43 44 45 46 47 48 49 50
544
ASUS43 KMKX 301600
RWRWI

WISCONSIN REGIONAL WEATHER ROUNDUP
NATIONAL WEATHER SERVICE MILWAUKEE/SULLIVAN WI
1100 AM CDT SAT APR 30 2016

NOTE: "FAIR" INDICATES FEW OR NO CLOUDS BELOW 12,000 FEET WITH NO
SIGNIFICANT WEATHER AND/OR OBSTRUCTIONS TO VISIBILITY.

WIZ001-002-006>008-014>016-023>028-301700-
NORTHWEST WISCONSIN

CITY           SKY/WX    TMP DP  RH WIND       PRES   REMARKS
SUPERIOR ARPT  SUNNY     44  35  70 NE18G28   30.26S
ASHLAND        CLOUDY    48  37  65 NE21G26   30.26S
HAYWARD        CLOUDY    51  32  48 NE13G29   30.18F
SIREN          CLOUDY    52  30  42 NE13G21   30.16S
CUMBERLAND     CLOUDY    48  32  53 NE16      30.14S
RICE LAKE      CLOUDY    52  31  46 NE14G20   30.15S
CHETEK         CLOUDY    50  35  56 NE12      30.13S
LADYSMITH      CLOUDY    52  33  48 E12G17    30.16F
EAU CLAIRE     NOT AVBL
MENOMONIE      CLOUDY    51  34  52 NE10G17   30.10F
NEW RICHMOND   PTSUNNY   51  31  46 E15G22    30.11S
OSCEOLA        CLOUDY    53  32  44 NE16      30.15S
$$

WIZ003>005-009-010-017-018-301700-
NORTH CENTRAL WISCONSIN

CITY           SKY/WX    TMP DP  RH WIND       PRES   REMARKS
MANITOWISH WTR PTSUNNY   49  32  52 NE10G17   30.19S
ARBOR VITAE    CLOUDY    52  32  46 E9G16     30.17F
WOODRUFF       CLOUDY    52  32  46 E9G16     30.17F
RHINELANDER    CLOUDY    51  32  48 NE12      30.16F
EAGLE RIVER    PTSUNNY   52  28  40 E14       30.17F
LAND O LAKES   CLOUDY    51  30  45 NE9       30.20S
PHILLIPS       PTSUNNY   50  32  50 E13       30.15F
TOMAHAWK       CLOUDY    50  31  48 NE10      30.16S
MEDFORD        CLOUDY    50  34  54 E13G20    30.12S
MERRILL        CLOUDY    52  33  47 E12       30.14F
$$

WIZ029-030-035-036-043>047-301700-
CENTRAL WISCONSIN

CITY           SKY/WX    TMP DP  RH WIND       PRES   REMARKS
WAUSAU         CLOUDY    55  31  39 E20G25    30.11S
MOSINEE        SUNNY     52  34  50 E14G21    30.13S
MARSHFIELD     CLOUDY    51  33  50 E16       30.10S
STEVENS POINT  CLOUDY    47  32  55 E13       30.12F
WAUPACA        CLOUDY    52  38  59 NE8       30.13S
WAUTOMA        CLOUDY    50  37  61 E14G20    30.11
WISC RAPIDS    CLOUDY    51  33  50 E13       30.12R
CAMP DOUGLAS   NOT AVBL
$$

WIZ011>013-019>022-031-037>040-048>050-301700-
NORTHEAST WISCONSIN

CITY           SKY/WX    TMP DP  RH WIND       PRES   REMARKS
ANTIGO         CLOUDY    51  33  50 E10G17    30.15S
SHAWANO        CLOUDY    53  38  55 E14       30.15F
OCONTO         CLOUDY    48  35  59 E12       30.18R
STURGEON BAY   PTSUNNY   48  32  53 NE10      30.20S
GREEN BAY      PTSUNNY   50  41  71 NE14      30.15F
MANITOWOC      NOT AVBL
APPLETON       PTSUNNY   48  36  61 NE13G18   30.12S
CLINTONVILLE   CLOUDY    50  34  53 NE9       30.14S
OSHKOSH        PTSUNNY   51  39  63 E14       30.11S
$$

WIZ032>034-041-042-053>061-301700-
SOUTHWEST WISCONSIN

CITY           SKY/WX    TMP DP  RH WIND       PRES   REMARKS
LA CROSSE      CLOUDY    49  33  54 E10G18    30.05S
SPARTA         CLOUDY    47  36  64 E12       30.06S
VIROQUA        CLOUDY    45  33  64 E15G21    30.03S
BOSCOBEL       CLOUDY    50  38  63 NE9G17    30.02S
PRAIRIE DU CHI DRIZZLE   48  36  61 NE9       29.99S
PLATTEVILLE    CLOUDY    47  44  90 E21       29.96F
$$

WIZ056-057-062-063-064-067-068-301700-
SOUTH CENTRAL WISCONSIN

CITY           SKY/WX    TMP DP  RH WIND       PRES   REMARKS
REEDSBURG      CLOUDY    47  37  67 E9        30.06S
BARABOO/DELLS  CLOUDY    48  37  66 E13G18    30.07R
LONE ROCK      NOT AVBL
MINERAL POINT  LGT RAIN  46  43  87 E13G22    29.99F
MADISON        CLOUDY    48  40  73 E15       30.05F
MIDDLETON      CLOUDY    48  40  73 E9G18     30.05S
WATERTOWN      CLOUDY    49  41  74 E13G20    30.06F
MONROE         DRIZZLE   45  43  93 E13G21    30.00S
JANESVILLE     DRIZZLE   50  43  76 E13G18    30.02F
$$

WIZ051-052-058>065-066-070>072-301700-
SOUTHEAST WISCONSIN

CITY           SKY/WX    TMP DP  RH WIND       PRES   REMARKS
MILWAUKEE      CLOUDY    45  39  79 E14       30.09F
WAUKESHA       CLOUDY    45  36  70 E15       30.09F
MILWAUKEE/TIMM CLOUDY    46  36  66 E12G17    30.10F
RACINE         CLOUDY    45  38  76 E12       30.10S
BURLINGTON     CLOUDY    46  38  73 E14G20    30.07S
KENOSHA        CLOUDY    46  40  79 E15       30.07S
FOND DU LAC    PTSUNNY   51  39  63 E14G22    30.11S
SHEBOYGAN      PTSUNNY   49  36  61 E10       30.13S
WEST BEND      PTSUNNY   46  36  66 E12G17    30.10S
JUNEAU         PTSUNNY   47  39  73 E14G20    30.09F
$$

LSZ147-162-301700-
LAKE SUPERIOR

STATION/POSITION TIME  TEMP    WIND        PRES    WAVE
                       AIR SEA DIR/SP/G            HT/PER
                 (UTC) (F)     (DEG/KT/KT) (MB)    (FT/S)
W MID LAKE BUOY  1450   38 37   40/ 12/ 14 1026.5R   2/ 4
DEVILS ISLAND    1500   39      60/ 19/ 22 1026.3R
SAXON HARBOR     1500   40      50/ 16/ 21 1024.0R
$$

LMZ867-665-643>646-301700-
LAKE MICHIGAN

STATION/POSITION TIME  TEMP    WIND        PRES    WAVE
                       AIR SEA DIR/SP/G            HT/PER
                 (UTC) (F)     (DEG/KT/KT) (MB)    (FT/S)
CHAMBERS ISLAND  1500   41      10/ 12/ 14 1022.4S
N MID LAKE BUOY  1450   39 39   50/ 10/ 12 1022.4F   1/ 3
NORTHPORT PIER   1500   44      60/ 11/ 13 1022.4S
ALGOMA LAKESHORE 1515           70/ 15/ 18   N/A
KEWAUNEE LAKESHO 1500   44      20/  8/ 11 1020.9R
SHEBOYGAN LAKESH 1500   42      40/  7/  8 1021.2R
PORT WASHINGTON  1500   44      90/  8/ 13 1020.7R
S MID LAKE BUOY  1450   42 40   70/ 12/ 14 1018.9F   1/ 3
KENOSHA   LAKESH 1500   42      80/ 15/ 17 1018.3S
$$

TC  - TEMPERATURE IN CELSIUS
VSB - VISIBILITY IN STATUTE MILES
WCI - WIND CHILL INDEX
HX  - HEAT INDEX





USA.gov is the U.S. government's official web portal to all federal, state and local government web resources and services.